This demonstration page uses our WeatherBlox Daily Observations layout. Learn more.

36.17497, -115.13722

Hourly Observations for June 3, 2016

Temp ( °F °C ) Dew Point ( °F °C ) Humidity (%) Winds ( mph kmh ) Pressure ( in mb ) Visibility ( mi km ) Precip ( " mm )
12:53 am 00:53 Clear 87 30.6 29 -1.7 12 12 SW 7 11 29.88 1012 10 16.0934 0 0
1:53 am 01:53 Clear 84 28.9 29 -1.7 13 13 Calm 29.88 1012 10 16.0934 0 0
2:53 am 02:53 Clear 81 27.2 31 -0.6 16 16 Calm 29.89 1012 10 16.0934 0 0
3:53 am 03:53 Clear 79 26.1 33 0.6 19 19 WNW 7 11 29.9 1013 10 16.0934 0 0
4:53 am 04:53 Clear 80 26.7 29 -1.7 15 15 WNW 5 7 29.91 1013 10 16.0934 0 0
5:53 am 05:53 Sunny 78 25.6 28 -2.2 16 16 NNW 7 11 29.94 1014 10 16.0934 0 0
6:53 am 06:53 Sunny 84 28.9 28 -2.2 13 13 N 9 15 29.95 1014 10 16.0934 0 0
7:53 am 07:53 Sunny 85 29.4 32 0 15 15 WNW 6 9 29.98 1015 10 16.0934 0 0
8:53 am 08:53 Sunny 90 32.2 29 -1.7 11 11 Calm 29.99 1016 10 16.0934 0 0
9:53 am 09:53 Sunny 93 34 28 -2 10 10 SSE 5 7 29.85 1011 10 16.0934 0 0
10:53 am 10:53 Sunny 96 35.6 27 -2.8 8 8 VRB 3 6 29.99 1016 10 16.0934 0 0
11:53 am 11:53 Sunny 100 37.8 27 -2.8 7 7 ESE 6 9 29.98 1015 10 16.0934 0 0
12:53 pm 12:53 Sunny 102 38.9 25 -3.9 6 6 E 10 17 29.96 1014 10 16.0934 0 0
1:53 pm 13:53 Sunny 103 39.4 24 -4.4 6 6 undefined N/A 29.93 1014 10 16.0934 0 0
2:53 pm 14:53 Sunny 104 40 25 -3.9 6 6 S 7 11 29.91 1013 10 16.0934 0 0
3:53 pm 15:53 Sunny 104 40 25 -3.9 6 6 S 8 13 29.89 1012 10 16.0934 0 0
4:53 pm 16:53 Sunny 105 40.6 26 -3.3 6 6 SE 9 15 29.87 1012 10 16.0934 0 0
5:53 pm 17:53 Sunny 105 40.6 26 -3.3 6 6 S 8 13 29.85 1011 10 16.0934 0 0
6:53 pm 18:53 Sunny 103 39.4 26 -3.3 6 6 Calm 29.85 1011 10 16.0934 0 0
7:53 pm 19:53 Sunny 101 38.3 26 -3.3 7 7 SE 5 7 29.85 1011 10 16.0934 0 0
8:53 pm 20:53 Clear 97 36.1 27 -2.8 8 8 Calm 29.86 1011 10 16.0934 0 0
9:53 pm 21:53 Clear 93 33.9 34 1.1 12 12 NNW 7 11 29.88 1012 10 16.0934 0 0
10:53 pm 22:53 Clear 90 32.2 36 2.2 15 15 WNW 3 6 29.89 1012 10 16.0934 0 0
11:53 pm 23:53 Clear 86 30 34 1.1 15 15 NNW 5 7 29.88 1012 10 16.0934 0 0

Powered by AerisWeather